Change the Weather History Date:

Saturday, May 10, 2014

  Actual Average Record
Temperature  
Mean Temperature 82 °F -  
Max Temperature 88 °F - - ()
Min Temperature 75 °F - - ()
Cooling Degree Days 16    
Growing Degree Days 32 (Base 50)    
Moisture  
Dew Point 75 °F    
Average Humidity 89    
Maximum Humidity 100    
Minimum Humidity 60    
Precipitation  
Precipitation 0.47 in - - ()
Sea Level Pressure  
Sea Level Pressure 29.85 in    
Wind  
Wind Speed 3 mph ()    
Max Wind Speed 12 mph    
Max Gust Speed -    
Visibility 4.8 miles    
Events Rain , Thunderstorm    
T = Trace of Precipitation, MM = Missing Value Source: Averaged Metar Reports

Daily Weather History Graph

Daily Weather History Graph

Search for Another Location

Airport or City:

Trip Planner

Search our weather history database for the weather conditions in past years. The results will help you decide how hot, cold, wet, or windy it might be!

Date:

Astronomy

May. 10, 2014 Rise Set
Actual Time 5:31 AM WITA 5:42 PM WITA
Civil Twilight 5:09 AM WITA 6:03 PM WITA
Nautical Twilight 4:44 AM WITA 6:29 PM WITA
Astronomical Twilight 4:19 AM WITA 6:54 PM WITA
Moon 2:02 PM WITA (5/10) 1:39 AM WITA (5/10)
Length of Visible Light 12h 54m
Length of Day
12h 10m
Waxing Gibbous, 78% of the Moon is Illuminated
May 10
Waxing Gibbous
May 15
Full
May 21
Last Quarter
May 29
New
Jun 6
First Quarter

Hourly Weather History & Observations

Time (WITA) Temp. Heat Index Dew Point Humidity Pressure Visibility Wind Dir Wind Speed Gust Speed Precip Events Conditions
12:00 AM 75.2 °F - 75.2 °F 100% 29.86 in 5.6 mi SSE 1.2 mph - N/A   Partly Cloudy
1:00 AM 75.2 °F - 75.2 °F 100% 29.83 in 5.6 mi SSE 1.2 mph - N/A   Partly Cloudy
2:00 AM 76 °F - 75 °F 95% 29.83 in 4 mi NNE 3.5 mph - - Rain Light Rain
2:30 AM 77.0 °F - 75.2 °F 94% 29.83 in 5.0 mi SE 3.5 mph - N/A Rain Light Rain
5:00 AM 76 °F - 75 °F 95% 29.83 in 4 mi NNE 3.5 mph - - Rain Light Rain
7:30 AM 77.0 °F - 75.2 °F 94% 29.86 in 5.0 mi ESE 1.2 mph - N/A   Scattered Clouds
8:00 AM 79 °F - 76 °F 89% 29.88 in 5 mi Calm Calm - -   Partly Cloudy
8:00 AM 78.8 °F - 77.0 °F 94% 29.89 in 5.6 mi Calm Calm - N/A   Scattered Clouds
8:30 AM 80.6 °F 87.1 °F 77.0 °F 89% 29.89 in 5.6 mi Calm Calm - N/A   Scattered Clouds
9:00 AM 84.2 °F 94.1 °F 77.0 °F 79% 29.89 in 5.6 mi NNE 1.2 mph - N/A   Partly Cloudy
9:30 AM 87.8 °F 99.7 °F 77.0 °F 70% 29.89 in 5.6 mi West 2.3 mph - N/A   Partly Cloudy
10:00 AM 87.8 °F 97.6 °F 75.2 °F 66% 29.89 in 5.6 mi West 2.3 mph - N/A   Scattered Clouds
10:30 AM 87.8 °F 97.6 °F 75.2 °F 66% 29.86 in 5.6 mi WNW 3.5 mph - N/A   Scattered Clouds
11:00 AM 88 °F - 76 °F 60% 29.88 in 6 mi West 3.5 mph - -   Partly Cloudy
11:00 AM 87.8 °F 99.7 °F 77.0 °F 70% 29.86 in 5.6 mi West 3.5 mph - N/A   Scattered Clouds
11:30 AM 86.0 °F 95.1 °F 75.2 °F 70% 29.86 in 5.6 mi West 4.6 mph - N/A   Scattered Clouds
12:00 PM 84.2 °F 90.9 °F 73.4 °F 70% 29.86 in 5.6 mi NW 6.9 mph - N/A   Scattered Clouds
12:30 PM 80.6 °F 86.2 °F 75.2 °F 84% 29.86 in 2.5 mi NNE 11.5 mph - N/A Rain , Thunderstorm Light Thunderstorms and Rain
1:00 PM 77.0 °F - 75.2 °F 94% 29.83 in 2.5 mi East 8.1 mph - N/A Rain , Thunderstorm Light Thunderstorms and Rain
1:30 PM 77.0 °F - 75.2 °F 94% 29.80 in 3.7 mi SE 9.2 mph - N/A Rain , Thunderstorm Light Thunderstorms and Rain
2:00 PM 79 °F - 75 °F 84% 29.81 in 5 mi SSE 3.5 mph - - Thunderstorm Thunderstorm
2:00 PM 78.8 °F - 75.2 °F 89% 29.80 in 5.0 mi SSE 3.5 mph - N/A Thunderstorm Thunderstorm
2:30 PM 80.6 °F 87.1 °F 77.0 °F 89% 29.80 in 5.0 mi SW 3.5 mph - N/A Thunderstorm Thunderstorm
3:00 PM 78.8 °F - 75.2 °F 89% 29.80 in 5.0 mi SW 6.9 mph - N/A Rain , Thunderstorm Light Thunderstorms and Rain
3:30 PM 77.0 °F - 75.2 °F 94% 29.80 in 2.5 mi SW 6.9 mph - N/A Rain , Thunderstorm Light Thunderstorms and Rain
4:00 PM 75.2 °F - 73.4 °F 94% 29.83 in 4.3 mi South 4.6 mph - N/A Rain Light Rain
4:30 PM 77.0 °F - 73.4 °F 89% 29.83 in 5.0 mi SSE 4.6 mph - N/A Rain Light Rain
5:00 PM 76 °F - 74 °F 93% 29.83 in 5 mi SE 3.5 mph - - Rain Light Rain
5:00 PM 77.0 °F - 73.4 °F 89% 29.83 in 5.0 mi SE 3.5 mph - N/A Rain Light Rain
5:30 PM 77.0 °F - 75.2 °F 94% 29.83 in 5.0 mi SE 2.3 mph - N/A Rain Light Rain
6:00 PM 77.0 °F - 75.2 °F 94% 29.83 in 5.0 mi SE 2.3 mph - N/A Rain Light Rain
6:30 PM 77.0 °F - 75.2 °F 94% 29.86 in 5.0 mi SE 2.3 mph - N/A Rain Light Rain
7:00 PM 77.0 °F - 75.2 °F 94% 29.86 in 3.7 mi NE 1.2 mph - N/A Rain Light Rain
7:30 PM 77.0 °F - 75.2 °F 94% 29.86 in 3.7 mi Calm Calm - N/A Rain Light Rain
8:00 PM 76 °F - 75 °F 95% 29.88 in 4 mi Calm Calm - - Rain Light Rain
8:00 PM 75.2 °F - 75.2 °F 100% 29.86 in 4.3 mi Calm Calm - N/A Rain Light Rain
8:30 PM 75.2 °F - 75.2 °F 100% 29.86 in 4.3 mi North 1.2 mph - N/A Rain Light Rain
10:30 PM 75.2 °F - 75.2 °F 100% 29.89 in 5.0 mi NE 2.3 mph - N/A   Scattered Clouds
11:00 PM 76 °F - 75 °F 94% 29.89 in 5 mi NE 2.3 mph - -   Partly Cloudy
11:00 PM 75.2 °F - 75.2 °F 100% 29.89 in 5.0 mi NE 2.3 mph - N/A   Scattered Clouds
11:30 PM 75.2 °F - 73.4 °F 94% 29.86 in 5.0 mi NE 1.2 mph - N/A   Scattered Clouds